Regional Weather Roundup
Issued by NWS

Home | Current Version | Previous Version | Graphics & Text | Print | Product List | Glossary On
Versions: 1 2 3 4 5 6 7 8 9 10 11 12 13 14 15 16 17 18 19 20 21 22 23 24 25 26 27 28 29 30 31 32 33 34 35 36 37 38 39 40 41 42 43 44 45 46 47 48 49 50
375
ASUS43 KTOP 220059
RWRKS

WEATHER ROUNDUP FOR KANSAS
NATIONAL WEATHER SERVICE GOODLAND KS
800 PM CDT THU MAY 21 2015

NOTE:  "FAIR" INDICATES FEW OR NO CLOUDS BELOW 12,000 FEET WITH NO
SIGNIFICANT WEATHER AND/OR OBSTRUCTIONS TO VISIBILITY.

KSZ001>006-013>018-027>032-041>047-220200-
NORTHWEST KANSAS

CITY           SKY/WX    TMP DP  RH WIND       PRES   REMARKS
GOODLAND       CLOUDY    54  44  69 S15       30.17S
HAYS           CLOUDY    59  41  51 S9        30.20R
HILL CITY      MOCLDY    59  42  53 SE7       30.19R
RUSSELL        MOCLDY    60  44  55 S9        30.18S
$$

KSZ061>065-074>080-084>089-220200-
SOUTHWEST KANSAS

CITY           SKY/WX    TMP DP  RH WIND       PRES   REMARKS
DODGE CITY     CLOUDY    58  44  60 SE10      30.19F
ELKHART          N/A     52  43  72 SE7         N/A
GARDEN CITY    CLOUDY    56  44  64 SE9       30.18F
GREAT BEND     CLOUDY    59  43  55 SE8       30.20R
LIBERAL        CLOUDY    57  45  62 SE5       30.19F
$$

KSZ066>073-081>083-090>101-220200-
SOUTHEAST KANSAS

CITY           SKY/WX    TMP DP  RH WIND       PRES   REMARKS
CHANUTE        PTCLDY    59  48  67 S5        30.21R
COFFEYVILLE    MOCLDY    61  50  67 E5        30.20F
HUTCHINSON     MOCLDY    61  44  53 SE5       30.20S
NEWTON         MOCLDY    59  43  55 E5        30.22S
PARSONS        MOCLDY    59  54  83 CALM      30.22S
WICHITA INTL   MOCLDY    61  44  53 SE8       30.20R
WICHITA JABRA    N/A     60  44  55 E5        30.19F
WINFIELD       MOCLDY    61  46  57 E7        30.21R
$$

KSZ007>012-019>026-033>040-048>060-102>105-220200-
NORTHEAST KANSAS

CITY           SKY/WX    TMP DP  RH WIND       PRES   REMARKS
CONCORDIA      PTCLDY    62  41  46 SE5       30.19F
EMPORIA        CLEAR     60  43  53 E5        30.20S
LAWRENCE       CLEAR     66  41  40 CALM      30.19S
MANHATTAN      CLEAR     64  43  46 SE6       30.19S
OLATHE IND     CLEAR     63  43  48 N5        30.20S
OLATHE EXE     CLEAR     64  43  46 N3        30.19S
SALINA         PTCLDY    64  42  44 SE5       30.20F
TOPEKA BILLARD CLEAR     66  42  41 SE3       30.20S
TOPEKA FORBES  CLEAR     65  46  50 SE3       30.20S
$$



USA.gov is the U.S. government's official web portal to all federal, state and local government web resources and services.